This is the latest recevied weather packets stored in our database for station/object JR5VPD-10. If no packets are shown the sender has not sent any weather packets the latest 10 day(s).
| Time | Temp. | Humidity | Pressure | Rain* | Wind** | Luminosity | Snow |
|---|---|---|---|---|---|---|---|
| 1787600172 | 30° C | 84% | 1010.3 hPa | 0 mm | 0 m/s | - | - |
| 1787598372 | 30° C | 83% | 1010.2 hPa | 0 mm | 0 m/s | - | - |
| 1787596572 | 30° C | 82% | 1010.2 hPa | 0 mm | 0 m/s | - | - |
| 1787594772 | 30° C | 83% | 1010.1 hPa | 0 mm | 0 m/s | - | - |
| 1787592972 | 30° C | 87% | 1010 hPa | 0 mm | 0 m/s | - | - |
| 1787591172 | 30° C | 86% | 1010.1 hPa | 0 mm | 0 m/s | - | - |
| 1787589372 | 30° C | 84% | 1010.1 hPa | 0 mm | 0 m/s | - | - |
| 1787587572 | 30.56° C | 83% | 1010.2 hPa | 0 mm | 0 m/s | - | - |
| 1787585772 | 30.56° C | 82% | 1010.6 hPa | 0 mm | 0 m/s | - | - |
| 1787583972 | 30.56° C | 82% | 1010.5 hPa | 0 mm | 0 m/s | - | - |
| 1787582172 | 30.56° C | 81% | 1010.6 hPa | 0 mm | 0 m/s | - | - |
| 1787580372 | 30.56° C | 81% | 1010.6 hPa | 0 mm | 0 m/s | - | - |
| 1787578572 | 30.56° C | 80% | 1010.4 hPa | 0 mm | 0 m/s | - | - |
| 1787576772 | 30.56° C | 82% | 1010.2 hPa | 0 mm | 0 m/s | - | - |
| 1787574972 | 30.56° C | 80% | 1010 hPa | 0 mm | 0 m/s | - | - |
| 1787573172 | 30.56° C | 82% | 1010 hPa | 0 mm | 0 m/s | - | - |
| 1787571372 | 30.56° C | 79% | 1009.9 hPa | 0 mm | 0 m/s | - | - |
| 1787569572 | 30.56° C | 81% | 1009.7 hPa | 0 mm | 0 m/s | - | - |
| 1787567772 | 30.56° C | 86% | 1009.3 hPa | 0 mm | 0 m/s | - | - |
| 1787565972 | 30.56° C | 83% | 1009 hPa | 0 mm | 0 m/s | - | - |
| 1787564172 | 30.56° C | 84% | 1008.9 hPa | 0 mm | 0 m/s | - | - |
| 1787562372 | 30.56° C | 83% | 1008.8 hPa | 0 mm | 0 m/s | - | - |
| 1787560572 | 30.56° C | 78% | 1008.7 hPa | 0 mm | 0 m/s | - | - |
| 1787558772 | 30.56° C | 75% | 1008.7 hPa | 0 mm | 0 m/s | - | - |
| 1787556972 | 31.67° C | 74% | 1008.8 hPa | 0 mm | 0 m/s | - | - |
* Rain latest hour (hover to see other rain measurements)
** Current wind speed in m/s (hover to see current wind gust speed)